Volver al catálogo

POLAR BEAR

ActivoMilitarPO
NORAD 17070·PAYLOAD·🇺🇸 United States

Lanzado Nov 14, 1986 desde Vandenberg Space Force Base

Loading…

Próximos Pases (próximas 24 horas)

TLE

ActualizadoSource: Space-Track

Época: Sep 14, 2026, 05:41 UTC

1 17070U 86088A   26257.23748125  .00000088  00000-0  80107-4 0  9995
2 17070  89.6257 172.8588 0039973  12.4248 150.1120 13.75300918997658

Sigue POLAR BEAR en tiempo real con AllMySat

Download on the App Store